Flag for Germany Weather past 2 weeks in Lörrach, Baden-Württemberg, Germany

32 °F

Light snow. Passing clouds.

Feels Like: 29 °F
Forecast: 33 / 48 °F
Wind: 3 mph from South

Location: Bale-Mulhouse

Current Time: Nov 28, 2015 at 7:13:44 AM

Latest Report: Nov 28, 2015 at 6:30 AM

Visibility: 3 mi

Pressure: 29.95 "Hg

Humidity: 93%

Dew point: 30 °F

Location of LörrachLocation

Historic Weather in Lörrach — Graph


Lörrach temperature yesterday

Maximum temperature yesterday: 36 °F (at 12:30 AM)
Minimum temperature yesterday: 32 °F (at 9:30 AM)
Average temperature yesterday: 34 °F

Past Weeks' High & Low Weather Summary

High66 °F (Nov 15, 2:30 PM)100% (Nov 13, 8:00 AM)30.51 "Hg (Nov 13, 8:00 AM)
Low23 °F (Nov 24, 5:30 AM)42% (Nov 16, 1:00 PM)29.45 "Hg (Nov 21, 12:30 PM)
Average45 °F81%30.06 "Hg
* Reported Nov 13 5:00 AM — Nov 28 5:30 AM, Lörrach, Weather by CustomWeather, © 2015

Note: Actual official high and low records may vary slightly from our data, if they occured in-between our weather recording intervals... More about our weather records


Lörrach weather history for previous 24 hours

Time TempWeatherWind HumidityBarometerVisibility
5:30 AM
Sat, Nov 28
32 °FPassing clouds.3 mph93%29.95 "Hg5 mi
5:00 AM32 °FPassing clouds.3 mph93%29.95 "Hg5 mi
4:30 AM30 °FPassing clouds.3 mph100%29.95 "Hg4 mi
4:00 AM30 °FPassing clouds.3 mph93%29.98 "Hg4 mi
3:30 AM30 °FLow clouds.2 mph93%29.98 "Hg5 mi
3:00 AM30 °FLow clouds.2 mph93%29.98 "Hg5 mi
2:30 AM30 °FClear.5 mph93%29.98 "Hg4 mi
2:00 AM28 °FPartly cloudy.1 mph100%29.98 "Hg4 mi
1:00 AM28 °FIce fog.2 mph100%29.98 "Hg1 mi
12:30 AM30 °FIce fog.2 mph93%29.98 "Hg1 mi
12:00 AM30 °FIce fog.3 mph100%29.98 "Hg0 mi
11:30 PM
Fri, Nov 27
32 °FIce fog.5 mph93%29.98 "Hg2 mi
11:00 PM32 °FIce fog.3 mph100%30.01 "Hg2 mi
10:30 PM32 °FIce fog.2 mph100%30.01 "Hg2 mi
10:00 PM32 °FIce fog.1 mph100%30.01 "Hg2 mi
9:30 PM32 °FIce fog.2 mph100%30.01 "Hg2 mi
9:00 PM32 °FIce fog.2 mph100%30.01 "Hg3 mi
8:30 PM34 °FMostly cloudy.2 mph93%30.01 "Hg4 mi
8:00 PM34 °FMostly cloudy.2 mph93%30.01 "Hg4 mi
7:30 PM34 °FMostly cloudy.3 mph93%30.04 "Hg4 mi
7:00 PM34 °FMostly cloudy.5 mph93%30.01 "Hg5 mi
6:30 PM34 °FMostly cloudy.5 mph93%30.01 "Hg5 mi
6:00 PM34 °FMostly cloudy.3 mph93%30.01 "Hg5 mi
5:30 PM34 °FMostly cloudy.3 mph93%30.01 "Hg5 mi
5:00 PM36 °FMostly cloudy.3 mph87%30.04 "Hg6 mi
4:30 PM36 °FMostly cloudy.2 mph87%30.04 "HgN/A
4:00 PM36 °FPartly sunny.3 mph87%30.04 "HgN/A
3:30 PM36 °FPartly sunny.3 mph87%30.04 "HgN/A
3:12 PM36 °FPartly sunny.3 mph87%30.04 "HgN/A
2:30 PM36 °FPartly sunny.5 mph87%30.04 "HgN/A
2:00 PM36 °FPartly sunny.3 mph93%30.07 "HgN/A
1:30 PM36 °FPartly sunny.3 mph93%30.07 "HgN/A
1:00 PM36 °FPartly sunny.2 mph87%30.07 "HgN/A
12:30 PM34 °FLow clouds.3 mph93%30.07 "HgN/A
12:00 PM34 °FLow clouds.5 mph93%30.09 "Hg6 mi
11:30 AM36 °FMostly cloudy.3 mph93%30.09 "Hg6 mi
11:00 AM34 °FMostly cloudy.3 mph93%30.09 "Hg6 mi
10:30 AM34 °FSnow. Fog.5 mph93%30.09 "Hg6 mi
10:00 AM32 °FSnow. Cloudy.6 mph100%30.09 "Hg6 mi
9:30 AM32 °FFog.5 mph100%30.09 "Hg1 mi
9:00 AM34 °FFog.3 mph93%30.12 "Hg1 mi
7:30 AM34 °FChilly.1 mph93%30.12 "Hg3 mi
7:00 AM34 °FChilly.2 mph93%30.12 "Hg1 mi
Weather by CustomWeather, © 2015

See weather overviewHow to use our weather pages